Zurück zum Katalog

SL-8 DEB

AktivLEO
NORAD 1479·DEBRIS·🇷🇺 Russia

Gestartet Mar 15, 1965 von Baikonur Cosmodrome

Loading…

Nächste Überflüge (nächste 24 Stunden)

TLE

AktuellSource: Space-Track

Epoche: Sep 13, 2026, 13:23 UTC

1  1479U 65020BD  26256.55765601  .00000579  00000-0  13696-2 0  9998
2  1479  56.0351  53.1537 0736867 191.6343 166.6690 12.60063445807506

Verfolge SL-8 DEB in Echtzeit mit AllMySat

Download on the App Store